Location: Newark
(48.4472°N, 1.4892°E)
Time: 09:19:44
(UTC+00:00)

Transit 4A - Pass Details

Date: 01 December 2019
Orbit: 870 x 975 km, 66.8° (Epoch: 06 December)

Event Time Altitude Azimuth Distance (km) Brightness Sun altitude
Exits shadow 05:31:06 14° 232° (SW) 2,244 9.5 -18.0°
Drops below altitude 10° 05:32:32 10° 219° (SW) 2,512 9.9 -17.8°
Sets 05:35:54 0° 199° (SSW) 3,443 10.8 -17.2°
